This is the latest recevied weather packets stored in our database for station/object WX2NJ. If no packets are shown the sender has not sent any weather packets the latest 10 day(s).
| Time | Temp. | Humidity | Pressure | Rain* | Wind** | Luminosity | Snow |
|---|---|---|---|---|---|---|---|
| 1777685891 | 10.56° C | 62% | 1016.2 hPa | 0 mm | - | 0 W/m² | - |
| 1777685587 | 10.56° C | 61% | 1016.2 hPa | 0 mm | - | 0 W/m² | - |
| 1777685284 | 11.11° C | 61% | 1016.1 hPa | 0 mm | - | 0 W/m² | - |
| 1777684981 | 10.56° C | 60% | 1016 hPa | 0 mm | - | 0 W/m² | - |
| 1777684678 | 10.56° C | 60% | 1016.1 hPa | 0 mm | - | 0 W/m² | - |
| 1777684374 | 11.11° C | 60% | 1016 hPa | 0 mm | - | 0 W/m² | - |
| 1777684072 | 11.11° C | 61% | 1016 hPa | 0 mm | - | 0 W/m² | - |
| 1777683768 | 11.11° C | 61% | 1016.1 hPa | 0 mm | - | 0 W/m² | - |
| 1777683465 | 11.11° C | 60% | 1016 hPa | 0 mm | - | 0 W/m² | - |
| 1777683163 | 11.11° C | 60% | 1015.9 hPa | 0 mm | - | 0 W/m² | - |
| 1777682860 | 11.11° C | 59% | 1015.8 hPa | 0 mm | - | 0 W/m² | - |
| 1777682556 | 11.11° C | 59% | 1015.8 hPa | 0 mm | - | 0 W/m² | - |
| 1777682254 | 11.67° C | 59% | 1015.6 hPa | 0 mm | - | 0 W/m² | - |
| 1777681951 | 11.67° C | 59% | 1015.6 hPa | 0 mm | - | 0 W/m² | - |
| 1777681646 | 11.67° C | 58% | 1015.6 hPa | 0 mm | - | 0 W/m² | - |
| 1777681345 | 12.22° C | 59% | 1015.5 hPa | 0 mm | - | 0 W/m² | - |
| 1777681041 | 12.22° C | 58% | 1015.4 hPa | 0 mm | - | 0 W/m² | - |
| 1777680740 | 12.22° C | 57% | 1015.6 hPa | 0 mm | - | 0 W/m² | - |
| 1777680437 | 12.22° C | 60% | 1015.4 hPa | 0 mm | - | 0 W/m² | - |
| 1777680135 | 12.78° C | 61% | 1015.2 hPa | 0 mm | - | 0 W/m² | - |
| 1777679830 | 12.78° C | 62% | 1015.2 hPa | 0 mm | - | 0 W/m² | - |
| 1777679526 | 12.78° C | 63% | 1015.2 hPa | 0 mm | - | 0 W/m² | - |
| 1777679222 | 12.78° C | 63% | 1015 hPa | 0 mm | - | 0 W/m² | - |
| 1777678919 | 13.33° C | 63% | 1015.1 hPa | 0 mm | - | 1 W/m² | - |
| 1777678617 | 13.33° C | 62% | 1015 hPa | 0 mm | - | 2 W/m² | - |
* Rain latest hour (hover to see other rain measurements)
** Current wind speed in m/s (hover to see current wind gust speed)